Miscellaneous Local Product
Issued by NWS Hastings, NE

Home | Current Version | Previous Version | Text Only | Print | Product List | Glossary On
Versions: 1 2 3 4 5 6 7 8 9 10 11 12 13 14 15 16 17 18 19 20 21 22 23 24 25 26 27 28 29 30 31 32 33 34 35 36 37 38 39 40 41 42 43 44 45 46 47 48 49 50
891
AXUS43 KGID 231602
MISGRI

GID CWA HOURLY WEATHER ROUNDUP
NATIONAL WEATHER SERVICE HASTINGS NE
1000 AM CST FRI FEB 23 2018

NOTE: "FAIR" INDICATES FEW OR NO CLOUDS BELOW 12,000 FEET WITH NO
SIGNIFICANT WEATHER AND/OR OBSTRUCTIONS TO VISIBILITY.

...SOUTH CENTRAL NEBRASKA...

CITY           SKY/WX    TMP DP  RH WIND       PRES   REMARKS
GRAND ISLAND   CLOUDY    17  15  92 CALM      30.28R FOG
KEARNEY        SUNNY     23  17  78 N8        30.27R WCI  14
HASTINGS       SUNNY     23  18  81 N6        30.26R WCI  16
ORD            CLOUDY    20  17  88 NW10      30.24R WCI   9
YORK           SUNNY     19  19 100 N5        30.29R FOG     WCI  13
AURORA         MOSUNNY   19  15  86 N5        30.28R WCI  12
LEXINGTON      SUNNY     18  15  87 N7        30.23R WCI   9
HOLDREGE       SUNNY     22  22  99 N6        30.24R WCI  15
HEBRON         SUNNY     27  22  83 N6        30.30R WCI  20

...NEBRASKA PANHANDLE...

CITY           SKY/WX    TMP DP  RH WIND       PRES   REMARKS
CHADRON        SUNNY      1  -4  79 S3        30.21S
ALLIANCE       SUNNY      4   4 100 CALM      30.14R
SCOTTSBLUFF    PTSUNNY   13   8  81 NW6       30.15R WCI   4
SIDNEY         SUNNY     22  12  65 VRB6      30.12R WCI  14

...WESTERN AND NORTH CENTRAL NEBRASKA...

CITY           SKY/WX    TMP DP  RH WIND       PRES   REMARKS
VALENTINE      SUNNY      9   2  73 W7        30.24R WCI  -2
AINSWORTH      SUNNY     11   9  92 NW9       30.22R WCI  -1
ONEILL         CLOUDY    17  16  93 NW9       30.25R WCI   6
BROKEN BOW     CLOUDY    18  15  88 N15       30.21S WCI   4
IMPERIAL       SUNNY     24  16  71 N8        30.18R WCI  15
NORTH PLATTE   SUNNY     17  10  74 NW6       30.21S WCI   9
MCCOOK         SUNNY     21  20  96 CALM      30.23R

...EASTERN NEBRASKA...

CITY           SKY/WX    TMP DP  RH WIND       PRES   REMARKS
NORFOLK        CLOUDY    20  17  88 NW14      30.25R WCI   7
SO SIOUX CITY  CLOUDY    19  16  88 NW12      30.29R WCI   7
TEKAMAH        SUNNY     20  17  88 NW13      30.28R WCI   7
COLUMBUS       MOSUNNY   24  20  84 N10       30.28R WCI  14
ALBION         CLOUDY    22  20  92 N10G16    30.25R WCI  11
OMAHA EPPLEY   MOSUNNY   26  21  81 N9        30.29R WCI  17
OFFUTT AFB     SUNNY     28  22  79 CALM      30.29R
MILLARD        MOSUNNY   28  22  80 N3        30.30R
LINCOLN        SUNNY     26  21  81 N7        30.31R WCI  18
NEBRASKA CITY  SUNNY     28  27  94 W5        30.30R WCI  23
BEATRICE       SUNNY     28  23  82 CALM      30.30R
FALLS CITY     SUNNY     31  27  85 W7        30.31R WCI  24

...NORTHERN KANSAS...

CITY           SKY/WX    TMP DP  RH WIND       PRES   REMARKS
GOODLAND       SUNNY     24  21  88 CALM      30.16R
HILL CITY      CLOUDY    24  23  96 NW5       30.27R FOG     WCI  18
NORTON         CLOUDY    21  18  86 CALM      30.24R
PHILLIPSBURG   CLOUDY    25  25 100 NW3       30.29R
SMITH CENTER   SUNNY     23  21  93 NW3       30.29R
BELOIT         SUNNY     23  21  93 CALM      30.31R
HAYS           CLOUDY    26  25  96 N3        30.28R
RUSSELL        CLOUDY    29  26  89 CALM      30.26S
CONCORDIA      SUNNY     29  24  82 CALM      30.29R
SALINA         CLOUDY    33  28  81 VRB6      30.31S WCI  28
TOPEKA         PTSUNNY   35  28  75 NW6       30.32S WCI  30



USA.gov is the U.S. government's official web portal to all federal, state and local government web resources and services.